Location: Observatoire de l'Aigle
(47.0607°N, 71.3152°W)
Time: 16:29:25
(UTC-04:00)

Daily predictions for brighter satellites

Satellite Brightness Start Highest point End
(mag) Time Altitude Azimuth Time Altitude Azimuth Time Altitude Azimuth
Cosmos 1607 4.3 18:52:18 10° SW 18:58:27 69° NW 19:04:36 10° NE
Cosmos-2242 4.1 18:55:46 10° SE 18:59:14 23° E 19:02:45 10° NE
Meteor 1-28 Rocket 3.7 18:57:33 10° NNE 19:01:01 36° E 19:04:28 10° SSE
Cosmos 2297 4.2 18:57:37 10° NNW 19:03:16 68° WSW 19:08:51 10° SSE
SL-19 R/B 4.5 18:57:35 10° SSE 19:03:16 90° ENE 19:09:21 10° NNW
H-2A R/B 4.4 19:04:46 10° ESE 19:07:22 17° ENE 19:09:59 10° NNE
Cosmos 1805 4.1 19:04:31 10° SSE 19:07:56 28° E 19:11:20 10° NNE
Cosmos 2233 Rocket 4.4 19:01:38 10° SSW 19:07:56 74° W 19:14:18 10° N
Cosmos 1953 3.1 19:05:23 10° SSE 19:08:52 30° E 19:12:22 10° NNE
ALOS 3.2 19:06:18 10° ESE 19:10:15 28° ENE 19:14:13 10° N
USA 215 4.0 19:05:23 10° ENE 19:11:08 32° SE 19:16:50 10° S
Meteor 1-22 Rocket 4.0 19:07:06 10° S 19:12:25 80° E 19:17:43 10° NNE
SKYMED 2 3.8 19:08:10 10° N 19:12:31 77° WNW 19:16:51 10° SSW
Cosmos 1943 Rocket 3.9 19:09:24 10° N 19:12:56 17° NE 19:16:26 10° ENE
Cosmos 2369 Rocket 3.2 19:08:17 10° N 19:13:10 29° NE 19:17:56 10° ESE
Cosmos 1408 Rocket 3.5 19:11:05 10° N 19:15:27 63° E 19:19:44 10° SSE
Meteor 1-24 Rocket 4.1 19:10:37 10° NNW 19:16:15 68° W 19:21:39 10° S
HJ-1C 3.7 19:13:51 10° SSE 19:17:05 46° ENE 19:20:21 10° N
Cosmos 1603 4.2 19:17:21 10° S 19:22:33 37° ESE 19:27:47 10° NE
NOAA 12 4.2 19:22:29 10° SSE 19:27:45 81° WSW 19:33:05 10° NNW
ATLAS 3B R/B 4.2 19:21:00 10° WSW 19:28:02 39° NW 19:34:49 10° NNE
USA 186 3.6 19:29:28 10° NE 19:29:28 10° NE 19:29:30 10° NE
Aureole 2 Rocket 3.4 19:26:59 10° SSW 19:31:20 65° WNW 19:35:32 10° NNE
Cosmos 1470 3.9 19:28:25 10° SE 19:31:24 21° E 19:34:23 10° NE
SeaSat 1 4.4 19:35:13 11° SE 19:35:13 11° SE 19:35:32 10° SE
ATLAS CENTAUR R/B 3.9 19:28:53 10° SSW 19:34:21 69° SE 19:52:24 10° NE
Cosmos 724 4.5 19:30:46 10° SSW 19:36:28 51° ESE 19:42:21 10° NE
ERS-1 Rocket 4.4 19:35:21 16° E 19:37:13 19° ENE 19:40:41 10° NNE
In-Cosmos 22 4.3 19:31:31 10° NNW 19:37:20 86° W 19:43:05 10° S
Cosmos 2333 Rocket 4.0 19:32:33 10° WSW 19:37:44 33° NW 19:42:56 10° NNE
Meteor 1-29 3.3 19:35:27 10° NNE 19:38:50 43° E 19:42:10 10° S
SJ-6B 3.8 19:34:56 10° S 19:38:50 51° W 19:42:51 10° NNW
Resurs 1-3 3.5 19:36:13 10° SSE 19:40:35 71° ENE 19:44:59 10° N
TELKOM 3 3.3 19:38:30 10° WNW 19:41:24 63° SSW 19:42:22 29° SE
Helios 1A 2.9 19:37:47 10° SSE 19:41:59 83° ENE 19:46:14 10° NNW
FREGAT/IRIS 3.7 19:39:15 10° S 19:42:16 48° W 19:45:17 10° NNW
Cosmos 1674 3.1 19:39:46 10° N 19:43:29 42° ENE 19:46:24 15° SE
CZ-4B DEB 3.1 19:41:22 16° SE 19:43:43 45° ENE 19:46:53 10° N
Resurs 01 Rocket 1.7 19:39:19 10° SSE 19:43:47 85° WSW 19:48:15 10° NNW
Cosmos 1743 Rocket 3.5 19:40:11 10° N 19:44:37 63° E 19:48:59 10° SSE
NOSS 3-2 (A) 3.7 19:42:11 10° SW 19:48:21 80° NW 19:55:10 10° NE
FengYun 1-2 T 4.2 19:44:02 10° SSE 19:49:32 84° ENE 19:55:04 10° NNW
Cosmos 1452 Rocket 4.1 19:44:35 10° NNW 19:49:46 58° WSW 19:54:53 10° S
Cosmos 1758 3.3 19:47:45 10° S 19:51:51 88° WNW 19:55:59 10° N
ATLAS 5 CENTAUR R/B 1.8 19:53:03 10° SW 19:57:53 89° NW 20:03:13 10° NE
Abrixas 4.0 19:55:44 10° SSW 19:57:41 23° SSE 19:57:41 23° SSE
Nadezhda 4 Rocket 3.9 19:52:10 10° N 19:58:30 84° E 20:04:44 10° S
Cosmos 2237 Rocket 4.3 19:53:41 10° WSW 19:58:32 28° NW 20:03:23 10° N
Cosmos 1346 3.4 19:56:58 10° NNW 19:59:56 65° W 20:02:37 12° S
Meteor 2-12 Rocket 4.5 19:59:55 10° S 20:06:05 86° WNW 20:12:17 10° N
Cosmos 1092 Rocket 3.9 20:00:14 10° N 20:06:28 72° E 20:12:36 10° SSE
GP-B 3.4 20:02:35 10° NNE 20:06:49 42° E 20:08:19 31° SE
Cosmos 1655 Rocket 4.4 20:02:32 10° N 20:08:22 40° ENE 20:11:00 28° ESE
ASTEX 1 3.3 20:05:03 10° N 20:09:58 70° E 20:14:51 10° S
Cosmos 468 4.4 20:04:53 10° SSW 20:10:08 90° WSW 20:15:25 10° NNE
Cosmos 1420 Rocket 4.3 20:05:40 10° NNW 20:10:56 68° WSW 20:16:12 10° S
Helios 1B rocket 3.0 20:12:00 10° N 20:16:05 59° WNW 20:20:06 10° SSW
Cosmos 1328 3.9 20:13:16 10° N 20:17:09 51° ENE 20:17:29 49° E
SL-16 R/B 3.6 20:13:53 10° WSW 20:19:10 38° NW 20:24:30 10° NNE
Cosmos 2026 Rocket 4.1 20:13:49 10° N 20:19:47 52° ENE 20:22:36 30° SE
CENTAUR R/B 2.7 20:14:06 10° S 20:19:51 45° ESE 20:26:18 10° NE
Cosmos 1544 3.7 20:17:24 10° SSW 20:21:06 57° WNW 20:24:49 10° N
Cosmos 1939 Rocket 4.0 20:21:59 29° NE 20:21:59 29° NE 20:24:46 10° N
Cosmos 1634 Rocket 3.9 20:18:58 10° S 20:25:07 63° E 20:31:14 10° NNE
SL-14 R/B 4.1 20:21:28 10° N 20:24:31 35° NE 20:24:31 35° NE
CZ-2D R/B 3.6 20:24:44 22° S 20:27:10 64° W 20:31:03 10° NNW
Cosmos 1805 Rocket 4.4 20:23:06 10° N 20:26:35 34° NE 20:26:35 34° NE
NOSS 3-2 (C) 4.1 20:21:19 10° SW 20:27:27 60° NW 20:34:15 10° NE
H-2A R/B 3.7 20:28:54 21° NE 20:28:54 21° NE 20:31:25 10° N
ERBS 3.4 20:25:27 10° NW 20:28:32 36° NNE 20:28:32 36° NNE
Cosmos 1048 Rocket 4.0 20:27:42 10° SSW 20:33:01 87° WNW 20:38:17 10° NNE
SPOT 5 4.3 20:34:31 20° NE 20:34:31 20° NE 20:36:39 10° N
Cosmos 1269 Rocket 4.2 20:28:17 10° SSW 20:33:34 75° WNW 20:38:53 10° NNE
FENGYUN 3A 4.3 20:30:16 10° S 20:35:32 56° W 20:40:52 10° NNW
Envisat 3.1 20:39:20 52° E 20:39:40 53° ENE 20:44:37 10° N
H-2A R/B 3.8 20:39:09 21° SSW 20:41:22 44° W 20:45:07 10° NNW
Cosmos 2195 Rocket 4.4 20:35:24 10° N 20:41:45 85° E 20:45:27 27° S
Cosmos 2221 4.2 20:44:38 21° NNE 20:44:38 21° NNE 20:46:12 10° NNE
Cosmos 2151 2.9 20:37:58 10° N 20:42:12 85° W 20:42:41 70° S
YAOGAN 11 4.1 20:43:25 60° NE 20:43:25 60° NE 20:47:17 10° N
Gbstr 26 Del rocket 4.1 20:39:48 10° SSW 20:42:57 36° S 20:42:57 36° S
Cosmos 2058 3.2 20:40:39 10° N 20:44:01 54° NNE 20:44:01 54° NNE
CZ-4C R/B 4.3 20:40:27 10° WNW 20:45:10 25° NNW 20:50:24 10° NNE
ISS -0.6 20:43:39 10° SW 20:44:06 13° SW 20:44:06 13° SW
ALOS 3.7 20:43:14 10° SSW 20:47:33 37° W 20:51:55 10° NNW
H-2A R/B 4.1 20:51:24 13° NE 20:51:24 13° NE 20:52:38 10° NNE
BREEZE-M DEB (TANK) 3.1 20:40:31 10° W 20:51:22 72° SSW 20:52:04 62° SE
Meteor 2-20 4.4 20:48:15 10° N 20:54:22 61° ENE 20:54:59 58° ESE
USA 215 3.2 20:49:37 19° NE 20:54:36 86° NNW 21:01:09 10° WSW
Cosmos 2369 Rocket 2.7 20:52:00 10° NW 20:57:32 56° WSW 20:59:45 34° S
Cosmos 1943 Rocket 2.0 20:52:07 10° NNW 20:57:46 71° ENE 20:58:07 69° E
Cosmos 158 Rocket 3.7 20:53:14 10° SSW 20:58:07 85° WNW 21:03:03 10° NNE
Cosmos 1943 3.1 20:55:31 10° SSW 21:01:09 88° WNW 21:06:50 10° NNE
Cosmos 2263 4.4 20:58:56 10° NNW 21:04:41 67° WSW 21:05:59 51° S
SeaSat 1 3.8 21:05:59 10° NNE 21:15:13 14° SSW 21:15:53 10° SSW
Aureole 3 4.2 21:06:44 10° N 21:12:51 72° NE 21:12:51 72° NE
ERS-1 Rocket 3.1 21:15:22 68° WSW 21:15:29 68° WSW 21:20:31 10° NNW
Meteor 2-1 Rocket 4.2 21:24:05 82° W 21:24:10 83° WNW 21:30:06 10° N
Cosmos 2180 Rocket 4.4 21:28:05 82° N 21:28:05 82° N 21:33:57 10° N
Terra 4.2 21:35:55 14° NNE 21:35:55 14° NNE 21:36:46 10° N
ATLAS 5 CENTAUR R/B 4.1 21:39:15 10° W 21:43:22 24° NNW 21:47:48 10° NNE
Cosmos 2279 Rocket 4.5 21:46:27 46° WSW 21:47:52 55° WNW 21:53:59 10° N
UNK 4.4 21:40:27 10° WNW 21:54:39 70° WSW 21:54:39 70° WSW
Cosmos 2266 Rocket 4.5 21:56:22 10° NNW 22:01:26 57° NNW 22:01:26 57° NNW
ARGOS 4.4 22:05:49 36° NNW 22:05:49 36° NNW 22:08:59 10° NNW
H-2A R/B 4.4 22:06:03 23° NW 22:06:03 23° NW 22:07:56 10° NNW
CENTAUR R/B 3.4 22:04:24 10° WSW 22:10:30 48° NW 22:17:26 10° NE
H-2A R/B 4.2 22:32:03 21° NNW 22:32:03 21° NNW 22:33:42 10° NNW
Cosmos 1980 Rocket 4.5 22:25:02 10° N 22:26:57 16° NNE 22:26:57 16° NNE
USA 215 4.1 22:37:01 44° N 22:37:15 44° NNW 22:43:21 10° W
Cosmos 1943 Rocket 4.4 22:37:01 10° NW 22:39:38 18° W 22:39:38 18° W
ATLAS 3B R/B 4.4 23:08:26 10° NW 23:14:06 25° NNE 23:14:06 25° NNE
